Helicity
2 18 31 50 71 83 96 110 91 78 57 46 39 44 60 62 66 69 71 81 83 77
4 35 42 55 77 88 88 86 70 47 36 27 24 41 50 51 52 53 58 68 69 66
-18 -2 50 72 63 62 71 76 75 52 29 12 7 9 20 31 42 51 47 45 65 65
22 53 74 76 65 65 72 74 64 48 20 8 -0 -0 10 19 20 28 54 53 54 63
76 85 96 93 91 86 78 66 57 55 44 32 10 3 13 22 21 38 51 43 46 49
118 130 103 88 82 76 74 71 62 60 47 39 24 25 30 37 35 43 42 46 47 44
176 147 138 108 89 80 72 86 70 53 49 42 43 43 44 50 53 45 40 41 43 43
136 137 145 141 123 101 77 66 72 71 55 51 51 52 71 71 72 65 55 46 37 22
166 191 161 136 130 146 125 95 84 77 97 91 70 77 85 91 84 80 70 78 64 43
188 214 207 181 152 128 146 143 111 108 105 83 81 87 91 100 89 74 74 68 72 56
135 221 211 157 176 138 154 166 159 125 98 95 80 68 75 82 95 95 72 59 44 36
115 130 82 111 91 178 153 151 155 122 103 90 74 61 62 82 88 86 72 66 57 48
135 73 132 203 115 151 143 109 128 112 88 68 69 66 64 84 88 64 55 47 43 51
136 257 481 467 266 107 143 119 105 97 90 70 69 64 64 65 69 54 51 47 38 35
Wind_Speed
29 12 10 13 17 17 19 21 24 27 30 33 34 32 29 28 29 29 30 31 30 29
21 9 13 20 20 22 23 22 24 27 29 32 32 30 29 30 31 31 32 32 33 33
45 34 15 17 23 21 22 23 24 26 28 30 31 31 31 32 33 31 31 31 32 33
20 7 7 9 12 14 17 19 22 24 27 28 31 33 32 31 33 32 32 31 34 35
23 20 18 19 14 13 12 15 18 19 22 24 29 30 30 31 33 33 31 34 34 34
20 18 18 16 12 7 8 10 13 16 19 20 25 27 27 28 29 34 32 33 34 34
21 25 20 15 15 15 13 9 9 14 19 21 23 24 26 28 31 34 36 36 36 36
18 15 14 12 11 10 10 12 9 11 21 27 27 27 23 27 32 36 39 39 41 43
20 19 17 14 12 10 5 2 7 7 11 18 27 28 23 29 35 37 41 36 39 42
42 42 28 23 13 12 8 3 2 11 16 17 23 25 29 34 38 42 40 39 41 38
44 48 56 49 31 21 16 8 10 14 20 25 25 24 32 36 40 41 43 41 46 43
63 63 56 62 68 47 30 24 18 18 21 26 28 28 31 35 42 43 46 39 43 43
45 43 61 57 66 53 34 25 24 23 24 25 28 31 29 32 37 45 45 42 41 42
48 63 77 74 54 59 34 28 24 27 29 28 28 33 26 25 32 37 39 39 42 40
Wind_Direction
149 105 48 25 20 29 19 13 3 358 355 349 337 335 341 346 350 359 351 340 346 354
134 4 357 341 1 7 4 11 4 359 1 355 354 355 350 348 346 347 344 344 343 344
177 193 340 351 338 3 7 12 14 11 3 358 355 350 346 344 344 354 356 357 355 352
148 115 70 39 18 37 35 37 24 17 358 353 346 343 345 348 346 354 357 1 352 349
153 146 141 137 117 95 66 27 20 28 20 12 351 348 347 348 347 356 2 355 359 359
165 160 153 144 125 91 45 33 25 19 14 16 0 358 3 7 2 352 354 353 354 354
174 174 170 158 148 135 121 84 32 358 352 355 359 0 357 355 353 351 348 346 345 346
193 195 187 180 166 148 133 126 98 11 340 336 342 345 352 349 344 341 336 333 334 337
257 249 214 201 197 175 165 74 101 53 21 354 341 342 351 344 340 340 335 337 333 333
282 271 261 266 245 241 226 227 336 345 347 350 343 342 338 336 336 334 335 333 331 332
287 278 272 272 267 261 266 263 303 323 329 333 337 337 331 331 331 333 332 332 324 325
284 275 276 269 262 269 273 284 298 316 325 326 331 333 328 329 329 330 327 333 330 332
275 250 269 272 275 259 267 280 295 310 321 326 328 329 332 330 332 324 325 329 329 330
280 268 259 252 238 248 259 272 291 304 316 323 324 323 332 335 333 334 333 333 332 335